AAL3171 KCLT-KDAB

Flight info

Callsign AAL3171
Flight time 1h 0m
Altitude 38000
Route ICONS5 NOOKS DCT WURFL Q83 ROYCO Q85 LPERD TTHOR3
Aircraft A319/M-SDE3FGHIRWY/LB1

Departure

Time 2026-05-07 18:17
Airport Charlotte Douglas International Airport (KCLT)

Arrival

Time 2026-05-07 19:18
Airport Daytona Beach International Airport (KDAB)
Time Latitude Longitude Altitude Speed Heading
2026-05-07 18:02 35.21997 -80.94561 755 ft 0 kts 105°
2026-05-07 18:05 35.21997 -80.94562 755 ft 0 kts 105°
2026-05-07 18:05 35.22000 -80.94577 756 ft 2 kts 107°
2026-05-07 18:06 35.21999 -80.94594 755 ft 2 kts 56°
2026-05-07 18:06 35.21988 -80.94604 755 ft 2 kts 14°
2026-05-07 18:06 35.21973 -80.94611 755 ft 2 kts 26°
2026-05-07 18:06 35.21960 -80.94618 755 ft 2 kts 22°
2026-05-07 18:07 35.21946 -80.94626 755 ft 2 kts 23°
2026-05-07 18:07 35.21932 -80.94633 755 ft 2 kts 23°
2026-05-07 18:07 35.21918 -80.94640 755 ft 2 kts 23°
2026-05-07 18:07 35.21904 -80.94647 755 ft 2 kts 23°
2026-05-07 18:08 35.21893 -80.94653 755 ft 1 kts 37°
2026-05-07 18:08 35.21888 -80.94662 755 ft 1 kts 98°
2026-05-07 18:08 35.21893 -80.94673 755 ft 1 kts 153°
2026-05-07 18:08 35.21900 -80.94675 755 ft 0 kts 193°
2026-05-07 18:09 35.21907 -80.94672 755 ft 1 kts 200°
2026-05-07 18:09 35.21908 -80.94672 755 ft 0 kts 199°
2026-05-07 18:11 35.21898 -80.94693 755 ft 5 kts 255°
2026-05-07 18:11 35.21882 -80.94765 755 ft 11 kts 255°
2026-05-07 18:12 35.21876 -80.94882 755 ft 16 kts 267°
2026-05-07 18:12 35.21862 -80.95004 755 ft 11 kts 245°
2026-05-07 18:12 35.21789 -80.95034 755 ft 12 kts 175°
2026-05-07 18:12 35.21688 -80.95026 755 ft 16 kts 177°
2026-05-07 18:13 35.21568 -80.95015 755 ft 18 kts 176°
2026-05-07 18:13 35.21415 -80.95002 755 ft 23 kts 176°
2026-05-07 18:13 35.21249 -80.94988 755 ft 24 kts 176°
2026-05-07 18:13 35.21062 -80.94971 755 ft 25 kts 175°
2026-05-07 18:14 35.20889 -80.94955 755 ft 24 kts 177°
2026-05-07 18:14 35.20723 -80.94943 755 ft 23 kts 176°
2026-05-07 18:14 35.20565 -80.94929 755 ft 22 kts 176°
2026-05-07 18:14 35.20403 -80.94915 755 ft 24 kts 176°
2026-05-07 18:15 35.20230 -80.94900 755 ft 25 kts 176°
2026-05-07 18:15 35.20060 -80.94891 755 ft 19 kts 193°
2026-05-07 18:15 35.20017 -80.95033 755 ft 19 kts 270°
2026-05-07 18:15 35.20070 -80.95087 755 ft 0 kts 356°
2026-05-07 18:16 35.20199 -80.95098 755 ft 55 kts 356°
2026-05-07 18:16 35.20836 -80.95155 756 ft 126 kts 355°
2026-05-07 18:17 35.21910 -80.95239 848 ft 173 kts 355°
2026-05-07 18:17 35.23125 -80.95268 1529 ft 175 kts 358°
2026-05-07 18:17 35.24277 -80.94960 2343 ft 176 kts 20°
2026-05-07 18:17 35.25429 -80.94495 2984 ft 180 kts 358°
2026-05-07 18:18 35.26637 -80.94886 3482 ft 187 kts 328°
2026-05-07 18:18 35.27591 -80.95985 3945 ft 198 kts 290°
2026-05-07 18:18 35.27644 -80.97695 4426 ft 216 kts 250°
2026-05-07 18:18 35.26638 -80.99158 4944 ft 242 kts 213°
2026-05-07 18:19 35.24951 -80.99677 5490 ft 268 kts 186°
2026-05-07 18:19 35.23047 -80.99600 6309 ft 277 kts 181°
2026-05-07 18:19 35.21138 -80.99426 7214 ft 280 kts 181°
2026-05-07 18:19 35.19179 -80.99270 8083 ft 284 kts 183°
2026-05-07 18:20 35.17235 -80.99147 8928 ft 287 kts 185°
2026-05-07 18:20 35.15225 -80.99044 9778 ft 291 kts 185°
2026-05-07 18:20 35.13188 -80.98960 10485 ft 300 kts 186°
2026-05-07 18:20 35.11030 -80.98888 10951 ft 318 kts 186°
2026-05-07 18:21 35.08743 -80.98818 11370 ft 336 kts 186°
2026-05-07 18:21 35.06343 -80.98742 11738 ft 355 kts 186°
2026-05-07 18:21 35.03812 -80.98661 12049 ft 373 kts 185°
2026-05-07 18:21 35.01190 -80.98575 12356 ft 388 kts 185°
2026-05-07 18:22 34.98450 -80.98477 12971 ft 393 kts 185°
2026-05-07 18:22 34.96629 -80.98410 13452 ft 394 kts 186°
2026-05-07 18:22 34.92956 -80.98277 14362 ft 398 kts 186°
2026-05-07 18:22 34.90192 -80.98182 14976 ft 401 kts 187°
2026-05-07 18:23 34.87392 -80.98089 15592 ft 405 kts 188°
2026-05-07 18:23 34.84576 -80.97997 16214 ft 408 kts 188°
2026-05-07 18:23 34.81714 -80.97905 16739 ft 411 kts 188°
2026-05-07 18:23 34.78870 -80.97813 17264 ft 414 kts 188°
2026-05-07 18:24 34.75941 -80.97716 17715 ft 418 kts 189°
2026-05-07 18:24 34.73014 -80.97622 18186 ft 422 kts 189°
2026-05-07 18:24 34.70086 -80.97528 18673 ft 424 kts 189°
2026-05-07 18:24 34.67102 -80.97430 19166 ft 426 kts 189°
2026-05-07 18:25 34.64171 -80.97342 19627 ft 426 kts 189°
2026-05-07 18:25 34.61213 -80.97395 20078 ft 425 kts 192°
2026-05-07 18:25 34.58234 -80.97633 20509 ft 424 kts 195°
2026-05-07 18:25 34.55298 -80.97909 20919 ft 427 kts 195°
2026-05-07 18:26 34.52309 -80.98191 21305 ft 430 kts 195°
2026-05-07 18:26 34.49345 -80.98470 21713 ft 432 kts 195°
2026-05-07 18:26 34.46350 -80.98751 22066 ft 435 kts 194°
2026-05-07 18:26 34.43313 -80.99038 22444 ft 437 kts 194°
2026-05-07 18:27 34.40250 -80.99324 22826 ft 439 kts 195°
2026-05-07 18:27 34.37210 -80.99609 23196 ft 441 kts 194°
2026-05-07 18:27 34.34117 -80.99899 23569 ft 443 kts 194°
2026-05-07 18:27 34.32051 -81.00092 23796 ft 445 kts 194°
2026-05-07 18:28 34.27902 -81.00476 24242 ft 448 kts 195°
2026-05-07 18:28 34.24808 -81.00764 24552 ft 451 kts 194°
2026-05-07 18:28 34.21670 -81.01055 24868 ft 453 kts 194°
2026-05-07 18:28 34.18520 -81.01346 25258 ft 452 kts 194°
2026-05-07 18:29 34.15407 -81.01631 25726 ft 450 kts 195°
2026-05-07 18:29 34.12300 -81.01915 26168 ft 449 kts 195°
2026-05-07 18:29 34.09153 -81.02208 26557 ft 449 kts 195°
2026-05-07 18:29 34.06037 -81.02499 27001 ft 448 kts 195°
2026-05-07 18:30 34.02963 -81.02779 27532 ft 445 kts 195°
2026-05-07 18:30 33.99862 -81.03056 27976 ft 445 kts 194°
2026-05-07 18:30 33.96769 -81.03194 28367 ft 449 kts 192°
2026-05-07 18:30 33.93662 -81.03178 28841 ft 448 kts 191°
2026-05-07 18:31 33.90533 -81.03149 29299 ft 447 kts 191°
2026-05-07 18:31 33.87416 -81.03124 29714 ft 446 kts 191°
2026-05-07 18:31 33.84298 -81.03099 30153 ft 444 kts 191°
2026-05-07 18:31 33.81233 -81.03072 30590 ft 443 kts 191°
2026-05-07 18:32 33.78174 -81.03046 31026 ft 441 kts 191°
2026-05-07 18:32 33.75087 -81.03017 31470 ft 439 kts 191°
2026-05-07 18:32 33.72041 -81.02990 31883 ft 437 kts 191°
2026-05-07 18:32 33.69007 -81.02962 32216 ft 438 kts 191°
2026-05-07 18:33 33.65960 -81.02937 32586 ft 437 kts 191°
2026-05-07 18:33 33.62960 -81.02910 32978 ft 435 kts 191°
2026-05-07 18:33 33.59927 -81.02880 33408 ft 434 kts 191°
2026-05-07 18:33 33.56920 -81.02851 33790 ft 433 kts 191°
2026-05-07 18:34 33.53915 -81.02822 34136 ft 433 kts 191°
2026-05-07 18:34 33.50894 -81.02794 34525 ft 432 kts 191°
2026-05-07 18:34 33.47917 -81.02766 34866 ft 431 kts 191°
2026-05-07 18:34 33.44912 -81.02737 35280 ft 429 kts 191°
2026-05-07 18:35 33.41931 -81.02708 35658 ft 428 kts 192°
2026-05-07 18:35 33.38975 -81.02680 35951 ft 427 kts 192°
2026-05-07 18:35 33.35988 -81.02655 36212 ft 428 kts 192°
2026-05-07 18:35 33.33025 -81.02631 36371 ft 430 kts 192°
2026-05-07 18:36 33.29989 -81.02607 36529 ft 432 kts 192°
2026-05-07 18:36 33.26882 -81.02580 36718 ft 433 kts 191°
2026-05-07 18:36 33.23888 -81.02551 36908 ft 434 kts 192°
2026-05-07 18:36 33.20835 -81.02524 37019 ft 437 kts 191°
2026-05-07 18:37 33.17801 -81.02499 37186 ft 438 kts 192°
2026-05-07 18:37 33.14757 -81.02471 37300 ft 440 kts 192°
2026-05-07 18:37 33.11684 -81.02442 37454 ft 440 kts 192°
2026-05-07 18:37 33.08649 -81.02411 37614 ft 441 kts 192°
2026-05-07 18:38 33.05555 -81.02383 37820 ft 440 kts 192°
2026-05-07 18:38 32.99326 -81.02327 37866 ft 442 kts 192°
2026-05-07 18:39 32.93185 -81.02273 37873 ft 446 kts 191°
2026-05-07 18:39 32.86946 -81.02216 37873 ft 448 kts 191°
2026-05-07 18:40 32.80731 -81.02158 37877 ft 447 kts 191°
2026-05-07 18:40 32.74463 -81.02100 37880 ft 449 kts 191°
2026-05-07 18:41 32.68243 -81.02040 37881 ft 450 kts 191°
2026-05-07 18:41 32.61991 -81.01981 37883 ft 449 kts 190°
2026-05-07 18:42 32.55729 -81.01925 37888 ft 451 kts 190°
2026-05-07 18:42 32.49419 -81.01929 37891 ft 450 kts 191°
2026-05-07 18:43 32.43178 -81.02062 37894 ft 451 kts 191°
2026-05-07 18:43 32.36876 -81.02187 37895 ft 452 kts 191°
2026-05-07 18:44 32.30574 -81.02296 37904 ft 452 kts 191°
2026-05-07 18:44 32.24325 -81.02408 37902 ft 452 kts 191°
2026-05-07 18:45 32.18008 -81.02523 37903 ft 453 kts 190°
2026-05-07 18:45 32.11678 -81.02634 37903 ft 455 kts 190°
2026-05-07 18:46 32.05341 -81.02743 37906 ft 456 kts 190°
2026-05-07 18:46 31.99047 -81.02853 37906 ft 454 kts 190°
2026-05-07 18:47 31.92695 -81.03027 37909 ft 455 kts 191°
2026-05-07 18:47 31.86272 -81.03212 37909 ft 456 kts 190°
2026-05-07 18:48 31.79835 -81.03387 37920 ft 456 kts 190°
2026-05-07 18:48 31.73418 -81.03560 37924 ft 457 kts 190°
2026-05-07 18:49 31.67088 -81.03780 37921 ft 455 kts 193°
2026-05-07 18:49 31.60875 -81.04771 37927 ft 445 kts 201°
2026-05-07 18:50 31.54967 -81.06735 37927 ft 436 kts 208°
2026-05-07 18:50 31.49503 -81.09547 37924 ft 426 kts 215°
2026-05-07 18:51 31.44258 -81.12756 37924 ft 427 kts 216°
2026-05-07 18:51 31.38978 -81.15987 37926 ft 428 kts 216°
2026-05-07 18:52 31.33664 -81.19176 37924 ft 429 kts 215°
2026-05-07 18:52 31.28340 -81.22329 37923 ft 429 kts 215°
2026-05-07 18:53 31.22851 -81.25175 37926 ft 437 kts 208°
2026-05-07 18:53 31.16944 -81.27155 37924 ft 446 kts 201°
2026-05-07 18:54 31.10702 -81.28155 37924 ft 458 kts 192°
2026-05-07 18:54 31.04282 -81.28258 37926 ft 463 kts 188°
2026-05-07 18:55 30.97816 -81.28230 37879 ft 464 kts 188°
2026-05-07 18:55 30.94616 -81.28215 37586 ft 463 kts 188°
2026-05-07 18:55 30.91373 -81.28204 37288 ft 460 kts 188°
2026-05-07 18:55 30.88195 -81.28191 36996 ft 456 kts 188°
2026-05-07 18:56 30.84973 -81.28181 36701 ft 454 kts 189°
2026-05-07 18:56 30.81854 -81.28174 36414 ft 453 kts 189°
2026-05-07 18:56 30.78670 -81.28168 36120 ft 453 kts 189°
2026-05-07 18:56 30.75524 -81.28162 35831 ft 454 kts 189°
2026-05-07 18:57 30.72333 -81.28154 35540 ft 455 kts 189°
2026-05-07 18:57 30.69180 -81.28145 35210 ft 454 kts 189°
2026-05-07 18:57 30.66046 -81.28136 34706 ft 454 kts 189°
2026-05-07 18:57 30.62847 -81.28130 34052 ft 457 kts 189°
2026-05-07 18:58 30.59687 -81.28092 33346 ft 461 kts 187°
2026-05-07 18:58 30.56462 -81.27940 32633 ft 463 kts 186°
2026-05-07 18:58 30.53267 -81.27779 31902 ft 463 kts 186°
2026-05-07 18:58 30.50018 -81.27612 31114 ft 464 kts 186°
2026-05-07 18:59 30.46804 -81.27446 30310 ft 464 kts 186°
2026-05-07 18:59 30.43578 -81.27280 29473 ft 465 kts 186°
2026-05-07 18:59 30.40360 -81.27114 28611 ft 466 kts 185°
2026-05-07 18:59 30.37138 -81.26949 27727 ft 468 kts 186°
2026-05-07 19:00 30.33863 -81.26780 26786 ft 470 kts 185°
2026-05-07 19:00 30.30617 -81.26614 25822 ft 472 kts 185°
2026-05-07 19:00 30.27360 -81.26447 24814 ft 474 kts 185°
2026-05-07 19:00 30.24039 -81.26258 24062 ft 469 kts 184°
2026-05-07 19:01 30.20817 -81.26057 23427 ft 463 kts 184°
2026-05-07 19:01 30.17634 -81.25854 22796 ft 456 kts 184°
2026-05-07 19:01 30.14498 -81.25655 22178 ft 451 kts 184°
2026-05-07 19:01 30.11355 -81.25459 21549 ft 446 kts 184°
2026-05-07 19:02 30.08286 -81.25269 20925 ft 442 kts 184°
2026-05-07 19:02 30.05250 -81.25082 20306 ft 437 kts 184°
2026-05-07 19:02 30.02199 -81.24893 19670 ft 433 kts 184°
2026-05-07 19:02 29.99190 -81.24709 19034 ft 430 kts 184°
2026-05-07 19:03 29.96239 -81.24528 18404 ft 427 kts 184°
2026-05-07 19:03 29.93288 -81.24347 17760 ft 424 kts 183°
2026-05-07 19:03 29.90339 -81.24188 17103 ft 420 kts 184°
2026-05-07 19:03 29.87401 -81.24081 16465 ft 417 kts 185°
2026-05-07 19:04 29.84522 -81.23988 15840 ft 413 kts 184°
2026-05-07 19:04 29.81638 -81.23891 15198 ft 411 kts 184°
2026-05-07 19:04 29.78796 -81.23791 14565 ft 408 kts 184°
2026-05-07 19:04 29.75944 -81.23688 13942 ft 404 kts 184°
2026-05-07 19:05 29.73176 -81.23586 13335 ft 400 kts 183°
2026-05-07 19:05 29.70398 -81.23484 12717 ft 396 kts 183°
2026-05-07 19:05 29.67669 -81.23220 12181 ft 394 kts 176°
2026-05-07 19:05 29.64975 -81.22540 11923 ft 390 kts 168°
2026-05-07 19:06 29.62416 -81.21501 11912 ft 388 kts 163°
2026-05-07 19:06 29.57721 -81.19280 11054 ft 345 kts 162°
2026-05-07 19:06 29.55548 -81.18248 10550 ft 326 kts 162°
2026-05-07 19:07 29.54180 -81.17603 10263 ft 313 kts 162°
2026-05-07 19:07 29.50440 -81.14785 8924 ft 308 kts 126°
2026-05-07 19:07 29.49496 -81.12633 8244 ft 306 kts 115°
2026-05-07 19:08 29.48698 -81.10340 7544 ft 303 kts 113°
2026-05-07 19:08 29.47954 -81.08109 6867 ft 299 kts 113°
2026-05-07 19:08 29.47220 -81.05905 6192 ft 294 kts 113°
2026-05-07 19:08 29.46491 -81.03715 5508 ft 291 kts 113°
2026-05-07 19:09 29.45631 -81.01654 4823 ft 285 kts 123°
2026-05-07 19:09 29.44629 -80.99715 4155 ft 283 kts 123°
2026-05-07 19:09 29.43644 -80.97791 3492 ft 280 kts 123°
2026-05-07 19:09 29.42658 -80.95873 2967 ft 281 kts 123°
2026-05-07 19:10 29.41665 -80.93943 2653 ft 277 kts 123°
2026-05-07 19:10 29.40697 -80.92057 2328 ft 275 kts 123°
2026-05-07 19:10 29.39588 -80.90325 2010 ft 268 kts 142°
2026-05-07 19:10 29.38048 -80.89248 1935 ft 251 kts 157°
2026-05-07 19:11 29.36508 -80.88425 1927 ft 236 kts 158°
2026-05-07 19:11 29.35061 -80.87625 1919 ft 223 kts 157°
2026-05-07 19:11 29.33684 -80.86809 1924 ft 222 kts 155°
2026-05-07 19:11 29.32319 -80.85963 1923 ft 222 kts 154°
2026-05-07 19:12 29.30975 -80.85110 1922 ft 222 kts 154°
2026-05-07 19:12 29.29614 -80.84256 1919 ft 221 kts 160°
2026-05-07 19:12 29.28128 -80.84015 1904 ft 213 kts 195°
2026-05-07 19:12 29.26879 -80.84773 1907 ft 197 kts 226°
2026-05-07 19:13 29.26094 -80.85988 1990 ft 189 kts 240°
2026-05-07 19:13 29.25503 -80.87342 1961 ft 189 kts 245°
2026-05-07 19:13 29.24972 -80.88715 1938 ft 188 kts 246°
2026-05-07 19:13 29.24443 -80.90073 1928 ft 188 kts 245°
2026-05-07 19:14 29.23899 -80.91432 1923 ft 188 kts 245°
2026-05-07 19:14 29.23344 -80.92798 1917 ft 182 kts 245°
2026-05-07 19:14 29.22849 -80.94006 1894 ft 155 kts 245°
2026-05-07 19:14 29.22422 -80.95053 1752 ft 136 kts 245°
2026-05-07 19:15 29.22032 -80.96010 1582 ft 131 kts 245°
2026-05-07 19:15 29.21643 -80.96965 1413 ft 131 kts 245°
2026-05-07 19:15 29.21263 -80.97897 1256 ft 130 kts 245°
2026-05-07 19:15 29.20883 -80.98837 1098 ft 130 kts 245°
2026-05-07 19:16 29.20512 -80.99786 946 ft 130 kts 246°
2026-05-07 19:16 29.20128 -81.00713 772 ft 129 kts 246°
2026-05-07 19:16 29.19745 -81.01645 630 ft 129 kts 247°
2026-05-07 19:16 29.19370 -81.02583 485 ft 129 kts 247°
2026-05-07 19:17 29.18990 -81.03505 302 ft 128 kts 246°
2026-05-07 19:17 29.18622 -81.04414 132 ft 124 kts 247°
2026-05-07 19:17 29.18274 -81.05271 40 ft 105 kts 245°
2026-05-07 19:17 29.18038 -81.05849 38 ft 55 kts 245°
2026-05-07 19:18 29.17974 -81.06076 37 ft 13 kts 301°
2026-05-07 19:18 29.18060 -81.06132 36 ft 15 kts 336°
2026-05-07 19:18 29.18155 -81.06183 37 ft 15 kts 334°
2026-05-07 19:18 29.18248 -81.06229 39 ft 14 kts 347°
2026-05-07 19:19 29.18286 -81.06222 39 ft 0 kts 20°
2026-05-07 19:19 29.18313 -81.06220 39 ft 6 kts
2026-05-07 19:19 29.18349 -81.06192 39 ft 5 kts 99°
2026-05-07 19:19 29.18343 -81.06158 39 ft 0 kts 102°
2026-05-07 19:20 29.18343 -81.06159 39 ft 0 kts 102°